Lakeview AWS, OR

2:20 AM PDT on May 30, 2017 (GMT -0700)
Lake County

Weather History for KLKV - October, 2012

Change the Weather History Date:

Monday, October 22, 2012

  Actual Average Record
Temperature  
Mean Temperature 36 °F -  
Max Temperature 39 °F 58 °F 76 °F (1937)
Min Temperature 32 °F 31 °F 20 °F (1933)
Degree Days  
Heating Degree Days 30    
Moisture  
Dew Point 30 °F    
Average Humidity 83    
Maximum Humidity 100    
Minimum Humidity 48    
Precipitation  
Precipitation 0.00 in - - ()
Sea Level Pressure  
Sea Level Pressure 29.66 in    
Wind  
Wind Speed 10 mph (South)    
Max Wind Speed 22 mph    
Max Gust Speed 26 mph    
Visibility 8 miles    
Events      
Averages and records for this station are not official NWS values.
T = Trace of Precipitation, MM = Missing Value Source: NWS Daily Summary

Daily Weather History Graph

Daily Weather History Graph

Search for Another Location

Airport or City:

Trip Planner

Search our weather history database for the weather conditions in past years. The results will help you decide how hot, cold, wet, or windy it might be!

Date:

Astronomy

Oct. 22, 2012 Rise Set
Actual Time 7:23 AM PDT 6:08 PM PDT
Civil Twilight 6:54 AM PDT 6:36 PM PDT
Nautical Twilight 6:21 AM PDT 7:09 PM PDT
Astronomical Twilight 5:49 AM PDT 7:41 PM PDT
Moon 2:26 PM PDT (10/22) 12:08 AM PDT (10/22)
Length of Visible Light 11h 42m
Length of Day
10h 45m
First Quarter, 57% of the Moon is Illuminated
Oct 22
First Quarter
Oct 29
Full
Nov 6
Last Quarter
Nov 13
New
Nov 20
First Quarter

Hourly Weather History & Observations

Time (PDT) Temp. Windchill Dew Point Humidity Pressure Visibility Wind Dir Wind Speed Gust Speed Precip Events Conditions
12:15 AM 35.6 °F 30.7 °F 17.6 °F 48% 29.72 in 10.0 mi South 5.8 mph - N/A   Mostly Cloudy
12:35 AM 35.6 °F 29.9 °F 19.4 °F 52% 29.71 in 10.0 mi South 6.9 mph - N/A   Scattered Clouds
12:55 AM 37.4 °F 32.8 °F 21.2 °F 52% 29.69 in 10.0 mi SSW 5.8 mph - N/A   Mostly Cloudy
1:15 AM 35.6 °F 30.7 °F 23.0 °F 60% 29.68 in 10.0 mi SW 5.8 mph - N/A   Overcast
1:55 AM 35.6 °F 31.7 °F 21.2 °F 56% 29.67 in 10.0 mi East 4.6 mph - N/A   Overcast
2:15 AM 35.6 °F 32.8 °F 21.2 °F 56% 29.66 in 10.0 mi ESE 3.5 mph - N/A   Overcast
2:35 AM 35.6 °F 32.8 °F 21.2 °F 56% 29.65 in 10.0 mi SE 3.5 mph - N/A   Overcast
2:55 AM 35.6 °F 29.2 °F 21.2 °F 56% 29.66 in 10.0 mi SE 8.1 mph - N/A   Overcast
3:15 AM 35.6 °F 29.2 °F 21.2 °F 56% 29.65 in 10.0 mi SE 8.1 mph - N/A   Overcast
3:35 AM 37.4 °F 30.3 °F 21.2 °F 52% 29.66 in 10.0 mi SSE 10.4 mph 16.1 mph N/A   Overcast
3:55 AM 39.2 °F 32.0 °F 23.0 °F 52% 29.65 in 9.0 mi South 11.5 mph 24.2 mph N/A   Overcast
4:15 AM 37.4 °F 27.8 °F 26.6 °F 65% 29.65 in 10.0 mi SSE 17.3 mph 25.3 mph N/A   Overcast
4:55 AM 35.6 °F 25.5 °F 28.4 °F 75% 29.63 in 10.0 mi SSE 17.3 mph 23.0 mph N/A   Overcast
5:15 AM 35.6 °F 25.9 °F 30.2 °F 81% 29.62 in 10.0 mi South 16.1 mph 23.0 mph N/A   Overcast
5:35 AM 35.6 °F 25.5 °F 30.2 °F 81% 29.62 in 10.0 mi SSE 17.3 mph - N/A   Overcast
5:55 AM 35.6 °F 26.2 °F 32.0 °F 87% 29.63 in 10.0 mi SSE 15.0 mph 19.6 mph N/A   Overcast
6:15 AM 33.8 °F 25.8 °F 30.2 °F 87% 29.62 in 7.0 mi SSE 10.4 mph - N/A   Overcast
6:35 AM 33.8 °F 25.3 °F 30.2 °F 87% 29.61 in 8.0 mi SSE 11.5 mph - N/A   Overcast
6:55 AM 33.8 °F 26.4 °F 32.0 °F 93% 29.61 in 10.0 mi SSE 9.2 mph - N/A   Overcast
7:15 AM 33.8 °F 25.8 °F 30.2 °F 87% 29.61 in 5.0 mi SSE 10.4 mph - N/A   Overcast
7:35 AM 33.8 °F 26.4 °F 32.0 °F 93% 29.61 in 4.0 mi SSE 9.2 mph - N/A   Overcast
7:55 AM 33.8 °F 27.0 °F 32.0 °F 93% 29.60 in 2.5 mi SE 8.1 mph - N/A   Overcast
8:15 AM 33.8 °F 24.8 °F 32.0 °F 93% 29.59 in 10.0 mi SSE 12.7 mph 16.1 mph N/A   Overcast
8:35 AM 33.8 °F 23.9 °F 33.8 °F 100% 29.59 in 8.0 mi South 15.0 mph 18.4 mph N/A   Overcast
8:55 AM 35.6 °F 25.5 °F 33.8 °F 93% 29.59 in 10.0 mi South 17.3 mph 24.2 mph N/A   Overcast
9:15 AM 35.6 °F 25.5 °F 33.8 °F 93% 29.60 in 10.0 mi South 17.3 mph 23.0 mph N/A   Overcast
9:35 AM 35.6 °F 24.5 °F 33.8 °F 93% 29.60 in 10.0 mi South 20.7 mph - N/A   Overcast
9:55 AM 35.6 °F 24.2 °F 33.8 °F 93% 29.61 in 10.0 mi South 21.9 mph 26.5 mph N/A   Overcast
10:15 AM 33.8 °F 22.5 °F 32.0 °F 93% 29.61 in 8.0 mi South 19.6 mph 23.0 mph N/A   Overcast
10:35 AM 33.8 °F 24.8 °F 33.8 °F 100% 29.62 in 4.0 mi South 12.7 mph - N/A   Overcast
10:55 AM 35.6 °F 27.5 °F 35.6 °F 100% 29.62 in 7.0 mi South 11.5 mph - N/A   Overcast
11:15 AM 35.6 °F 28.0 °F 33.8 °F 93% 29.62 in 10.0 mi South 10.4 mph - N/A   Overcast
11:35 AM 37.4 °F 28.9 °F 33.8 °F 87% 29.63 in 10.0 mi South 13.8 mph - N/A   Overcast
11:55 AM 37.4 °F 29.8 °F 33.8 °F 87% 29.63 in 10.0 mi SSW 11.5 mph - N/A   Overcast
12:15 PM 35.6 °F 28.6 °F 33.8 °F 93% 29.63 in 5.0 mi SW 9.2 mph 19.6 mph N/A   Overcast
12:35 PM 33.8 °F 24.3 °F 30.2 °F 87% 29.64 in 1.2 mi SW 13.8 mph 20.7 mph N/A   Overcast
12:55 PM 37.4 °F 28.9 °F 35.6 °F 93% 29.64 in 10.0 mi SSW 13.8 mph 17.3 mph N/A   Overcast
1:15 PM 37.4 °F 30.3 °F 33.8 °F 87% 29.64 in 10.0 mi South 10.4 mph 16.1 mph N/A   Overcast
1:35 PM 33.8 °F 26.4 °F 30.2 °F 87% 29.64 in 0.8 mi SSW 9.2 mph - N/A   Overcast
1:55 PM 33.8 °F 27.0 °F 32.0 °F 93% 29.65 in 10.0 mi South 8.1 mph - N/A   Overcast
2:15 PM 33.8 °F 25.8 °F 32.0 °F 93% 29.66 in 8.0 mi WSW 10.4 mph - N/A   Overcast
2:35 PM 35.6 °F 29.2 °F 32.0 °F 87% 29.67 in 8.0 mi WSW 8.1 mph - N/A   Overcast
2:55 PM 35.6 °F 27.1 °F 32.0 °F 87% 29.67 in 7.0 mi SSW 12.7 mph - N/A   Overcast
3:15 PM 35.6 °F 30.7 °F 33.8 °F 93% 29.68 in 7.0 mi WSW 5.8 mph - N/A   Overcast
3:35 PM 35.6 °F 26.2 °F 30.2 °F 81% 29.67 in 10.0 mi WSW 15.0 mph 18.4 mph N/A   Overcast
3:55 PM 33.8 °F 28.6 °F 30.2 °F 87% 29.68 in 10.0 mi WSW 5.8 mph - N/A   Overcast
4:15 PM 33.8 °F 30.8 °F 30.2 °F 87% 29.68 in 10.0 mi SW 3.5 mph - N/A   Overcast
4:35 PM 33.8 °F 25.3 °F 30.2 °F 87% 29.68 in 10.0 mi West 11.5 mph - N/A   Mostly Cloudy
4:55 PM 33.8 °F 25.8 °F 30.2 °F 87% 29.69 in 9.0 mi West 10.4 mph - N/A   Overcast
5:15 PM 33.8 °F 27.7 °F 30.2 °F 87% 29.69 in 1.2 mi WSW 6.9 mph - N/A   Overcast
5:35 PM 33.8 °F 28.6 °F 30.2 °F 87% 29.69 in 10.0 mi SW 5.8 mph - N/A   Overcast
5:55 PM 33.8 °F 26.4 °F 30.2 °F 87% 29.70 in 10.0 mi South 9.2 mph - N/A   Overcast
6:15 PM 33.8 °F 25.3 °F 30.2 °F 87% 29.69 in 10.0 mi South 11.5 mph - N/A   Overcast
6:55 PM 32.0 °F 22.5 °F 30.2 °F 93% 29.70 in 10.0 mi SE 12.7 mph - N/A   Mostly Cloudy
7:15 PM 32.0 °F 22.1 °F 30.2 °F 93% 29.70 in 10.0 mi SE 13.8 mph - N/A   Overcast
7:35 PM 32.0 °F 22.1 °F 28.4 °F 87% 29.71 in 10.0 mi SE 13.8 mph - N/A   Mostly Cloudy
7:55 PM 32.0 °F 22.1 °F 28.4 °F 87% 29.71 in 10.0 mi SE 13.8 mph - N/A   Overcast
8:15 PM 32.0 °F 23.6 °F 30.2 °F 93% 29.71 in 10.0 mi SSE 10.4 mph - N/A   Overcast
8:35 PM 32.0 °F 24.2 °F 28.4 °F 87% 29.71 in 10.0 mi SSE 9.2 mph - N/A   Overcast
8:55 PM 33.8 °F 26.4 °F 28.4 °F 81% 29.71 in 10.0 mi SSE 9.2 mph - N/A   Overcast
9:15 PM 33.8 °F 27.7 °F 30.2 °F 87% 29.71 in 10.0 mi South 6.9 mph - N/A   Overcast
9:35 PM 33.8 °F 27.7 °F 30.2 °F 87% 29.70 in 10.0 mi SSE 6.9 mph - N/A   Overcast
10:15 PM 33.8 °F 25.8 °F 30.2 °F 87% 29.70 in 2.5 mi SSE 10.4 mph - N/A   Overcast
10:35 PM 32.0 °F 23.0 °F 30.2 °F 93% 29.69 in 4.0 mi SSE 11.5 mph - N/A   Overcast
11:15 PM 32.0 °F 23.6 °F 30.2 °F 93% 29.68 in 2.5 mi SSE 10.4 mph - N/A   Overcast
11:35 PM 32.0 °F 24.2 °F 30.2 °F 93% 29.68 in 1.2 mi South 9.2 mph - N/A   Overcast
11:55 PM 32.0 °F 22.5 °F 30.2 °F 93% 29.69 in 0.5 mi SSW 12.7 mph - N/A   Overcast